Location: Berkeley
(37.8716°N, 122.2727°W)
Time: 03:50:21
(UTC-07:00)

OTV 4 - Visible Passes

Search period start: 30 March 2017 00:00
Search period end: 09 April 2017 00:00
Orbit: 321 x 336 km, 38.0° (Epoch: 29 March)

Date Brightness Start Highest point End Pass type
(mag) Time Alt. Az. Time Alt. Az. Time Alt. Az.
30 Mar 2.5 05:04:10 24° E 05:04:10 24° E 05:05:29 10° E visible
31 Mar 0.6 05:21:04 61° ESE 05:21:04 61° ESE 05:23:26 10° E visible
01 Apr 0.1 05:37:58 49° W 05:38:35 84° N 05:41:21 10° E visible
02 Apr 0.1 05:54:54 22° W 05:56:30 87° SSW 05:59:16 10° E visible
03 Apr 3.4 04:40:48 15° E 04:40:48 15° E 04:41:21 10° E visible
03 Apr 0.4 06:11:52 11° W 06:14:24 57° SSW 06:17:06 10° ESE visible
04 Apr 2.3 04:57:51 27° E 04:57:51 27° E 04:59:16 10° E visible
05 Apr 1.0 05:15:01 43° SE 05:15:01 43° SE 05:17:07 10° ESE visible
06 Apr 1.2 05:32:19 30° SSW 05:32:19 30° SSW 05:34:40 10° SE visible
07 Apr 2.2 05:49:47 14° SSW 05:49:53 14° SSW 05:51:31 10° S visible
